DIAMANT B-P4 DEB, 7659

Orbit data source: Space-Track

DIAMANT B-P4 DEB, 7659 is space debris in LEO originally from a launch on Thu, 06 Feb 1975 UTC launched from the French Guiana (FRGUI). Debris objects in space refer to the collection of defunct objects orbiting the Earth. Examples of debris include non-operational satellites, rocket bodies, and fragments generated from explosions, collisions, or faulty payload assembly.

Loading next visibility...
Identifier
7659, 1975-010E
Orbit
LEO
Country
Flag of FRFR
Related business
Manufacturer
Unknown
Mission
Spacecraft
Bus & Motor
Unknown
Mass
Unknown
Launch date (UTC)
1975-02-06 (51 years ago)
Launch vehicle
Unknown
Launch site
French Guiana (FRGUI)
Object type
Payload
Rocket body
Debris
Shape & HBR
Unknown
Radar Cross Section
Medium (>0.1 m² and <1 m²)

Expand to show TLE details & history
Last TLE update: 20 hours ago

TLE from 20 hours ago
0 DIAMANT B-P4 DEB
1 07659U 75010E   25260.17695057  .00000236  00000-0  25142-3 0  9993
2 07659  49.8132 106.3686 0185784 133.6652 227.9814 13.93850782567260
Epoch: 2025-09-17T04:14Z
TLE epoch observation values (Epoch: 2025-09-17T04:14:48.529Z)
Latitude
-0.00007°
Longitude
46.30969°
Altitude
1,007.729 km
Speed
7.303 km/s
True Right ascension
07h 05m 28s
True Declination
0° 00' 00"
Sunlit
Object was in daylight at epoch
Visualization orbit readout
Latitude
Unknown
Longitude
Unknown
Altitude
Unknown
Speed
Unknown
Apparent Right ascension
Unknown
Apparent Declination
Unknown
Sunlit
N/A
Visualization observer readout
Local Sidereal Time
16:50:15
Azimuth
Unknown
Elevation
Unknown
Doppler factor
Unknown
Orbital elements
Apogee altitude
1,051.436 km
Perigee altitude
780.412 km
Semi-major axis
7,294.061 km
Eccentricity
0.01858
Inclination
49.8132°
RAAN
106.3686°
Arg. of periapsis
133.6652°
True anomaly
226.42418°
Mean anomaly
227.9814°
Eccentric anomaly
227.20037°
Mean motion
3.48409 °/min
Orbital period
103.33 mins
BSTAR
0.00025142
Loading maneuver chart data...
Computing Atmospheric mass density...
Loading historical data...
Loading historical data...
Loading historical data...
Loading historical data...
Loading historical data...
Loading historical data...
Loading historical data...
Other satellites on launch #10 in the year 1975 (1975-02-06 UTC)

Documentation

Showing up to 5 results
|